Home > Weather > Karachi > Past weeks

Flag for Pakistan Past Weather in Karachi, Sindh, Pakistan — Yesterday and Last 2 Weeks

Now
82 °F

Thunderstorms. Partly cloudy.


Feels Like: 92 °F
Forecast: 87 / 96 °F
Wind: 6 mph from Northwest

Location: Karachi Airport

Current Time: Jun 30, 2016 at 1:02:47 AM

Latest Report: Jun 29, 2016 at 11:55 PM


Visibility: 2 mi

Pressure: 29.56 "Hg

Humidity: 89%

Dew Point: 79 °F

Location of KarachiLocation

Past Weather in Karachi — Graph

°F

Karachi Temperature Yesterday

Maximum temperature yesterday: 95 °F (at 10:25 AM)
Minimum temperature yesterday: 77 °F (at 2:55 PM)
Average temperature yesterday: 86 °F

High & Low Weather Summary for the Past Weeks

 TemperatureHumidityPressure
High104 °F (Jun 26, 12:55 PM)100% (Jun 29, 9:55 PM)29.65 "Hg (Jun 29, 9:55 PM)
Low77 °F (Jun 28, 8:25 PM)29% (Jun 26, 12:55 PM)29.39 "Hg (Jun 28, 3:25 PM)
Average88 °F63%29.54 "Hg
* Reported Jun 14 11:25 PM — Jun 29 11:25 PM, Karachi, Weather by CustomWeather, © 2016

Note: Actual official high and low records may vary slightly from our data, if they occured in-between our weather recording intervals... More about our weather records

Advertising

Karachi Weather History for the Previous 24 Hours

Scroll right to see more
 ConditionsComfort  
Time TempWeatherWind HumidityBarometerVisibility
11:25 PM
Wed, Jun 29
82 °FThunderstorms. Partly cloudy.8 mph89%29.59 "Hg2 mi
10:55 PM84 °FThunderstorms. Partly cloudy.No wind84%29.59 "Hg2 mi
10:25 PM82 °FThunderstorms. Partly cloudy.No wind84%29.59 "Hg2 mi
9:55 PM84 °FThunderstorms. Passing clouds.6 mph100%29.62 "Hg2 mi
9:25 PM86 °FThunderstorms. Passing clouds.No wind79%29.62 "Hg2 mi
8:55 PM86 °FPassing clouds.No wind75%29.59 "Hg4 mi
8:25 PM86 °FPassing clouds.2 mph75%29.56 "Hg4 mi
7:55 PM84 °FPassing clouds.8 mph74%29.56 "Hg4 mi
7:25 PM84 °FPassing clouds.6 mph79%29.53 "Hg4 mi
6:55 PM84 °FPartly sunny.5 mph79%29.53 "Hg4 mi
6:25 PM84 °FPartly sunny.5 mph79%29.53 "Hg4 mi
5:55 PM84 °FBroken clouds.2 mph79%29.53 "Hg4 mi
5:25 PM84 °FLight rain. Broken clouds.2 mph79%29.50 "Hg4 mi
4:55 PM82 °FBroken clouds.3 mph84%29.50 "Hg4 mi
4:25 PM82 °FLight rain. Broken clouds.5 mph84%29.53 "Hg4 mi
3:55 PM82 °FRain. Partly sunny.8 mph84%29.53 "Hg4 mi
3:25 PM81 °FRain. More clouds than sun.6 mph89%29.50 "Hg2 mi
2:55 PM77 °FRain showers. More clouds than sun.7 mph94%29.59 "Hg3 mi
2:25 PM86 °FThunderstorms. More clouds than sun.21 mph70%29.56 "Hg2 mi
1:55 PM91 °FThunderstorms. Broken clouds.21 mph67%29.56 "Hg2 mi
1:25 PM95 °FScattered clouds.6 mph56%29.56 "Hg4 mi
12:55 PM95 °FScattered clouds.7 mph56%29.56 "Hg4 mi
12:25 PM93 °FScattered clouds.5 mph59%29.56 "Hg4 mi
11:55 AM93 °FScattered clouds.8 mph59%29.59 "Hg4 mi
11:25 AM91 °FScattered clouds.10 mph63%29.59 "Hg4 mi
10:55 AM91 °FScattered clouds.6 mph75%29.59 "Hg4 mi
10:25 AM95 °FScattered clouds.3 mph60%29.59 "Hg4 mi
9:55 AM91 °FScattered clouds.6 mph67%29.59 "Hg4 mi
9:25 AM90 °FScattered clouds.1 mph71%29.59 "Hg4 mi
8:55 AM88 °FScattered clouds.6 mph75%29.59 "Hg4 mi
8:25 AM88 °FScattered clouds.5 mph75%29.59 "Hg4 mi
7:55 AM88 °FScattered clouds.10 mph75%29.59 "Hg4 mi
7:25 AM86 °FScattered clouds.8 mph79%29.56 "Hg4 mi
6:55 AM84 °FScattered clouds.5 mph84%29.53 "Hg4 mi
6:25 AM82 °FScattered clouds.6 mph89%29.53 "Hg4 mi
4:55 AM82 °FPassing clouds.5 mph89%29.53 "Hg4 mi
4:25 AM82 °FPassing clouds.5 mph89%29.53 "Hg4 mi
3:25 AM82 °FPassing clouds.3 mph84%29.53 "Hg4 mi
2:55 AM84 °FPassing clouds.2 mph79%29.53 "Hg4 mi
2:25 AM84 °FPartly cloudy.8 mph84%29.56 "Hg4 mi
1:55 AM84 °FPartly cloudy.10 mph84%29.56 "Hg4 mi
1:25 AM82 °FPartly cloudy.3 mph84%29.56 "Hg4 mi
Weather by CustomWeather, © 2016

See weather overviewHow to use our weather pages